RH
90 92 93 94 95 94 95 88 93 95 95 94 92 92 89 93 92 93 94 93 93 91
91 92 93 92 94 94 96 91 84 96 96 94 93 93 94 93 94 93 92 90 86 85
92 89 92 93 92 93 90 92 92 92 96 96 92 90 92 95 94 90 88 89 90 85
91 90 88 91 89 89 90 93 95 86 95 96 96 93 94 95 97 90 89 85 79 78
91 91 93 91 90 88 90 92 95 92 92 95 94 95 95 97 97 94 96 90 78 66
91 92 92 92 91 89 89 90 95 95 94 93 95 96 95 95 95 92 90 86 78 67
92 92 93 92 92 92 93 94 96 98 95 95 94 94 95 93 93 94 93 91 82 70
90 89 89 90 91 91 91 94 98 100 100 96 97 94 91 91 94 93 92 85 73 69
89 89 90 90 91 91 91 92 94 100 100 100 98 90 86 84 92 91 92 90 80 72
90 91 90 91 91 92 93 92 94 98 100 100 100 90 87 81 85 85 84 82 78 67
91 92 91 91 91 91 92 94 96 97 99 100 100 94 90 88 96 94 87 80 76 72
92 93 93 92 93 92 93 93 94 97 99 99 100 96 96 98 100 98 98 95 87 84
91 94 94 94 94 94 95 96 95 96 97 99 99 97 98 100 100 100 100 100 96 82
86 95 94 94 94 94 95 95 95 95 96 96 99 100 98 98 100 99 99 99 98 86
Wind_Speed
17 11 11 14 11 8 7 9 4 9 12 12 11 10 11 8 8 9 8 10 8 8
15 16 15 16 12 8 9 10 7 7 9 12 14 14 11 9 9 10 10 7 9 8
17 15 16 15 16 15 13 13 9 7 8 10 12 14 14 9 8 11 9 8 9 4
16 18 15 14 15 15 16 14 10 10 8 9 11 12 13 12 12 12 10 9 11 8
17 18 18 16 16 17 16 14 11 9 9 8 9 12 13 12 13 15 14 14 12 11
17 18 18 19 18 16 16 16 12 4 6 8 8 9 12 12 14 14 15 15 14 12
17 18 16 17 17 16 15 14 12 7 4 5 7 8 9 11 11 12 12 13 12 12
16 16 16 17 17 17 15 14 12 6 2 3 4 6 9 10 10 10 10 10 11 12
16 16 17 18 17 16 15 15 12 6 3 1 3 9 15 13 10 10 11 11 9 9
17 17 18 18 17 17 15 14 12 8 1 3 2 11 13 14 8 10 11 12 11 10
17 17 17 17 17 17 14 13 13 10 3 1 3 12 14 14 6 5 7 10 12 12
15 16 17 17 18 16 15 14 13 9 6 0 1 8 12 10 8 7 6 7 10 12
13 14 15 16 16 15 13 12 10 10 11 12 4 7 13 9 6 9 7 7 9 21
13 13 13 15 13 15 14 12 14 13 12 13 14 7 7 7 4 7 8 9 8 9
Wind_Direction
320 334 324 324 324 311 312 296 255 210 179 170 166 173 174 170 174 145 148 161 159 137
339 336 327 327 317 309 299 316 245 219 195 175 171 168 174 172 169 153 154 153 156 138
331 338 326 332 328 327 321 303 287 205 208 180 177 173 171 176 152 160 160 150 147 130
336 330 341 324 334 326 321 316 311 232 201 185 177 179 179 175 159 162 147 157 159 154
337 332 332 339 334 330 318 314 310 243 208 188 186 177 183 174 172 174 169 172 167 165
338 340 335 333 329 328 319 321 315 257 226 204 187 183 186 180 177 180 180 174 180 165
339 332 332 328 325 323 328 323 320 314 217 221 207 188 185 179 178 179 178 172 177 170
330 333 329 331 329 329 333 326 321 315 266 160 190 186 170 168 168 161 158 167 169 169
333 334 337 330 336 334 335 331 329 326 341 80 185 188 183 164 159 161 162 160 159 157
336 338 337 332 336 336 334 330 333 319 221 181 185 185 178 170 152 158 158 155 158 151
337 336 333 335 337 335 337 336 334 324 334 118 210 207 184 152 108 115 143 154 151 146
334 333 333 337 336 333 336 340 341 347 0 20 277 202 175 135 129 117 123 129 140 144
330 334 332 331 332 328 340 344 345 9 16 31 57 161 155 138 138 146 140 129 145 153
334 329 333 329 340 340 343 353 9 15 15 23 23 67 131 161 170 153 150 150 148 158